Total_Precipitation_Accumulation
0.11 0.13 0.16 0.17 0.12 0.04 0.01 0.00 0.01 0.02 0.01 0.02 0.03 0.04 0.04 0.05 0.05 0.09 0.06 0.06 0.04 0.06 0.11 0.20 0.23 0.24 0.24 0.23 0.21 0.21 0.24 0.31 0.36 0.41 0.44 0.40 0.38 0.37 0.38 0.39 0.36 0.37 0.34 0.35 0.28 0.22 0.17 0.14 0.12
0.15 0.21 0.28 0.29 0.14 0.04 0.01 0.00 0.01 0.02 0.02 0.02 0.03 0.05 0.09 0.12 0.08 0.06 0.08 0.09 0.07 0.08 0.12 0.17 0.24 0.26 0.26 0.25 0.25 0.23 0.26 0.31 0.36 0.42 0.45 0.43 0.42 0.44 0.42 0.40 0.34 0.33 0.28 0.26 0.20 0.15 0.13 0.11 0.09
0.25 0.36 0.44 0.32 0.14 0.04 0.01 0.00 0.01 0.01 0.02 0.03 0.05 0.08 0.17 0.24 0.15 0.10 0.09 0.12 0.12 0.13 0.15 0.24 0.31 0.32 0.30 0.28 0.28 0.27 0.28 0.33 0.39 0.47 0.51 0.50 0.50 0.49 0.44 0.36 0.30 0.26 0.22 0.20 0.16 0.11 0.09 0.07 0.06
0.40 0.61 0.55 0.32 0.13 0.04 0.01 0.00 0.00 0.01 0.03 0.04 0.06 0.14 0.22 0.25 0.25 0.19 0.14 0.18 0.19 0.21 0.24 0.32 0.38 0.41 0.38 0.35 0.31 0.32 0.33 0.35 0.39 0.47 0.52 0.52 0.52 0.53 0.45 0.37 0.27 0.20 0.18 0.17 0.14 0.11 0.10 0.08 0.06
0.64 0.76 0.56 0.31 0.11 0.05 0.02 0.01 0.01 0.01 0.03 0.05 0.08 0.18 0.28 0.28 0.33 0.37 0.30 0.29 0.31 0.36 0.39 0.43 0.47 0.48 0.47 0.45 0.41 0.36 0.35 0.37 0.42 0.49 0.50 0.53 0.52 0.52 0.51 0.41 0.25 0.17 0.17 0.18 0.16 0.14 0.14 0.12 0.09
1.00 0.84 0.56 0.29 0.09 0.03 0.02 0.02 0.01 0.02 0.03 0.06 0.10 0.24 0.35 0.39 0.50 0.60 0.58 0.50 0.49 0.56 0.62 0.61 0.63 0.56 0.52 0.49 0.51 0.47 0.43 0.42 0.47 0.55 0.54 0.54 0.55 0.54 0.54 0.45 0.30 0.21 0.18 0.19 0.18 0.17 0.16 0.15 0.12
1.06 0.83 0.50 0.23 0.09 0.04 0.03 0.03 0.02 0.02 0.04 0.07 0.10 0.30 0.39 0.50 0.66 0.84 0.93 0.87 0.83 0.90 0.93 0.81 0.75 0.64 0.60 0.53 0.50 0.52 0.51 0.48 0.52 0.57 0.55 0.53 0.51 0.51 0.50 0.44 0.33 0.26 0.23 0.24 0.22 0.20 0.18 0.16 0.15
1.04 1.03 0.53 0.25 0.13 0.06 0.05 0.06 0.05 0.04 0.06 0.08 0.13 0.28 0.38 0.51 0.76 1.05 1.24 1.33 1.23 1.21 1.27 1.14 0.96 0.84 0.73 0.64 0.51 0.48 0.50 0.48 0.48 0.47 0.40 0.39 0.42 0.45 0.42 0.33 0.28 0.25 0.23 0.23 0.22 0.20 0.19 0.17 0.15
1.14 1.22 0.62 0.26 0.16 0.09 0.09 0.10 0.08 0.07 0.10 0.15 0.20 0.23 0.33 0.55 0.90 1.27 1.52 1.63 1.57 1.46 1.49 1.49 1.27 1.04 0.90 0.75 0.58 0.54 0.52 0.48 0.44 0.38 0.31 0.30 0.35 0.39 0.33 0.24 0.20 0.24 0.25 0.23 0.21 0.20 0.20 0.17 0.12
1.24 1.01 0.45 0.20 0.18 0.18 0.18 0.17 0.15 0.16 0.20 0.25 0.33 0.36 0.52 0.72 1.01 1.28 1.50 1.54 1.53 1.50 1.51 1.62 1.46 1.28 1.12 0.92 0.70 0.66 0.61 0.52 0.44 0.36 0.32 0.31 0.32 0.36 0.30 0.26 0.22 0.23 0.25 0.24 0.25 0.24 0.23 0.20 0.14
0.87 0.55 0.30 0.24 0.27 0.30 0.29 0.22 0.21 0.25 0.23 0.21 0.27 0.43 0.68 0.90 1.10 1.26 1.39 1.49 1.48 1.59 1.69 1.74 1.71 1.46 1.34 1.20 0.89 0.69 0.63 0.61 0.56 0.44 0.36 0.37 0.38 0.40 0.39 0.34 0.29 0.26 0.23 0.21 0.21 0.23 0.20 0.18 0.17
0.58 0.35 0.34 0.36 0.35 0.42 0.42 0.33 0.30 0.30 0.28 0.22 0.29 0.48 0.71 0.92 1.07 1.20 1.23 1.39 1.53 1.68 1.74 1.78 1.88 1.68 1.43 1.31 1.15 0.92 0.72 0.62 0.59 0.51 0.43 0.43 0.44 0.39 0.36 0.33 0.29 0.30 0.26 0.23 0.22 0.21 0.18 0.18 0.17
0.47 0.36 0.36 0.44 0.50 0.49 0.51 0.47 0.41 0.33 0.32 0.33 0.44 0.61 0.78 0.97 1.15 1.27 1.29 1.32 1.46 1.65 1.80 1.84 1.86 1.82 1.59 1.40 1.25 1.13 0.93 0.75 0.72 0.67 0.56 0.49 0.47 0.42 0.36 0.33 0.35 0.36 0.35 0.31 0.27 0.24 0.23 0.22 0.20
0.45 0.42 0.43 0.51 0.57 0.56 0.63 0.61 0.58 0.43 0.38 0.47 0.58 0.66 0.85 1.02 1.19 1.34 1.38 1.35 1.30 1.48 1.74 1.85 1.86 1.90 1.83 1.56 1.37 1.24 1.04 0.86 0.82 0.78 0.69 0.66 0.61 0.58 0.51 0.45 0.40 0.39 0.39 0.39 0.36 0.33 0.32 0.28 0.26
0.48 0.58 0.61 0.61 0.65 0.66 0.73 0.79 0.63 0.47 0.47 0.55 0.61 0.68 0.85 0.99 1.10 1.26 1.41 1.44 1.33 1.39 1.64 1.74 1.83 1.93 1.93 1.78 1.61 1.38 1.25 1.00 0.85 0.81 0.77 0.76 0.70 0.66 0.64 0.60 0.55 0.50 0.48 0.47 0.46 0.45 0.45 0.39 0.34
0.68 0.75 0.72 0.58 0.63 0.72 0.87 0.78 0.52 0.52 0.56 0.61 0.60 0.68 0.80 0.97 1.04 1.15 1.38 1.58 1.58 1.50 1.59 1.69 1.79 1.96 1.93 1.89 1.84 1.68 1.54 1.33 1.06 0.96 0.94 0.86 0.80 0.75 0.72 0.67 0.56 0.51 0.57 0.57 0.52 0.48 0.47 0.41 0.34
0.87 0.74 0.55 0.54 0.55 0.68 0.78 0.68 0.55 0.54 0.58 0.56 0.56 0.61 0.72 0.89 1.00 1.10 1.25 1.44 1.56 1.58 1.62 1.76 1.78 1.96 2.06 2.00 1.98 1.85 1.72 1.63 1.43 1.15 1.01 0.97 0.93 0.86 0.84 0.77 0.71 0.65 0.58 0.57 0.58 0.52 0.46 0.42 0.39
0.61 0.53 0.44 0.46 0.50 0.56 0.61 0.52 0.53 0.53 0.55 0.52 0.53 0.54 0.59 0.77 0.96 0.98 1.14 1.36 1.53 1.60 1.66 1.79 1.85 1.97 2.20 2.28 2.22 2.16 1.86 1.65 1.63 1.41 1.18 1.08 1.09 1.04 0.95 0.88 0.86 0.87 0.79 0.67 0.60 0.56 0.51 0.45 0.47
0.36 0.37 0.38 0.33 0.38 0.46 0.48 0.47 0.51 0.51 0.52 0.56 0.55 0.52 0.53 0.64 0.87 0.94 1.03 1.28 1.45 1.56 1.65 1.74 1.83 1.92 2.11 2.22 2.20 2.13 1.96 1.73 1.60 1.52 1.38 1.27 1.22 1.26 1.18 1.03 1.01 0.98 0.91 0.81 0.74 0.71 0.66 0.60 0.59
0.44 0.44 0.43 0.37 0.33 0.45 0.46 0.45 0.43 0.41 0.49 0.59 0.56 0.53 0.55 0.60 0.73 0.83 0.90 1.03 1.18 1.33 1.52 1.66 1.76 1.88 1.91 1.96 2.11 2.23 2.29 2.11 1.83 1.64 1.52 1.39 1.31 1.31 1.28 1.22 1.14 1.09 1.06 1.04 1.00 0.96 0.89 0.82 0.82
0.48 0.39 0.35 0.36 0.38 0.44 0.43 0.44 0.38 0.38 0.45 0.51 0.55 0.56 0.53 0.52 0.59 0.66 0.75 0.94 1.05 1.15 1.35 1.59 1.73 1.86 1.90 1.94 2.15 2.32 2.45 2.29 2.00 1.65 1.47 1.46 1.47 1.45 1.34 1.31 1.31 1.23 1.15 1.10 1.09 1.08 1.05 0.98 0.94
0.48 0.28 0.27 0.30 0.44 0.50 0.43 0.59 0.41 0.40 0.43 0.47 0.52 0.51 0.48 0.47 0.50 0.55 0.65 0.78 0.89 1.03 1.18 1.32 1.49 1.67 1.86 1.94 1.97 1.99 2.07 2.03 1.81 1.71 1.62 1.62 1.64 1.61 1.53 1.45 1.41 1.36 1.29 1.17 1.15 1.14 1.08 1.04 0.99
0.40 0.27 0.31 0.32 0.42 0.46 0.35 0.52 0.45 0.31 0.34 0.44 0.53 0.54 0.50 0.49 0.50 0.52 0.61 0.74 0.80 0.90 1.13 1.24 1.32 1.50 1.70 1.84 1.90 1.97 1.92 1.92 1.99 1.94 1.85 1.75 1.71 1.68 1.61 1.52 1.49 1.41 1.34 1.29 1.28 1.25 1.21 1.13 1.07
0.41 0.41 0.46 0.44 0.57 0.60 0.29 0.40 0.43 0.30 0.34 0.39 0.42 0.47 0.50 0.53 0.59 0.63 0.68 0.71 0.72 0.77 0.98 1.20 1.23 1.32 1.44 1.64 1.84 1.89 1.79 1.80 1.85 1.84 1.79 1.78 1.78 1.75 1.66 1.55 1.47 1.40 1.35 1.33 1.33 1.36 1.32 1.26 1.19
0.50 0.61 0.87 0.91 0.82 0.45 0.21 0.30 0.38 0.29 0.31 0.33 0.35 0.39 0.44 0.53 0.57 0.63 0.67 0.62 0.61 0.66 0.79 0.98 1.10 1.22 1.28 1.41 1.56 1.70 1.76 1.74 1.77 1.79 1.75 1.67 1.60 1.54 1.52 1.52 1.47 1.42 1.34 1.32 1.33 1.36 1.33 1.29 1.23
0.47 0.46 0.59 0.59 0.38 0.25 0.21 0.30 0.33 0.29 0.26 0.24 0.25 0.30 0.37 0.44 0.46 0.49 0.56 0.58 0.58 0.59 0.65 0.72 0.79 0.88 0.95 1.04 1.16 1.28 1.47 1.56 1.52 1.57 1.58 1.55 1.47 1.45 1.47 1.46 1.46 1.47 1.45 1.40 1.37 1.37 1.34 1.32 1.24
0.49 0.42 0.27 0.44 0.36 0.33 0.25 0.24 0.25 0.22 0.22 0.22 0.24 0.29 0.35 0.42 0.46 0.47 0.54 0.55 0.58 0.60 0.64 0.64 0.65 0.71 0.80 0.83 0.89 0.93 1.08 1.21 1.26 1.32 1.32 1.26 1.26 1.33 1.34 1.33 1.34 1.36 1.38 1.36 1.36 1.33 1.29 1.29 1.26
0.35 0.33 0.40 0.65 0.56 0.41 0.23 0.20 0.31 0.26 0.22 0.24 0.29 0.31 0.35 0.45 0.44 0.43 0.50 0.53 0.55 0.59 0.62 0.61 0.60 0.62 0.72 0.78 0.83 0.84 0.88 0.95 1.07 1.16 1.11 1.08 1.10 1.15 1.19 1.18 1.18 1.20 1.21 1.24 1.26 1.23 1.18 1.17 1.13
0.25 0.32 0.36 0.43 0.39 0.39 0.24 0.26 0.30 0.30 0.26 0.26 0.30 0.34 0.42 0.45 0.45 0.45 0.49 0.52 0.55 0.60 0.60 0.57 0.60 0.61 0.65 0.70 0.71 0.72 0.75 0.79 0.85 0.93 0.96 0.95 0.99 0.99 1.01 1.02 1.03 1.02 1.04 1.08 1.12 1.08 1.06 1.08 1.07
0.21 0.20 0.25 0.45 0.31 0.23 0.24 0.28 0.27 0.26 0.25 0.24 0.26 0.31 0.38 0.41 0.44 0.43 0.44 0.49 0.53 0.54 0.50 0.49 0.54 0.57 0.62 0.65 0.62 0.62 0.64 0.67 0.70 0.74 0.79 0.80 0.84 0.87 0.89 0.91 0.91 0.88 0.86 0.90 0.94 0.97 0.96 0.96 0.97